Date String (YYYY-MM-DD hh:mm:ss) UTC,Instrument flags,Ambient pressure (hPa),Sample flow (lpm),Bypass flow (lpm),Sample temperature (°C),Ambient temperature (°C),ASC tube jacket temperature (°C),LED temperature (°C),Box temperature (°C),Sample RH (%),Span deviation,Mass concentration (μg/m³),Mass concentration (μg/m³),Mass concentration (μg/m³)
DateTimeUTC,F1_M11,P_M11,Q1_M11,Q2_M11,T1_M11,T2_M11,T3_M11,T4_M11,T5_M11,U1_M11,ZSPAN_M11,X0_M11,X2_M11,X1_M11
2022-03-22 11:00:00,,0827.4,5.01,0.00,22.1,21.7,00.0,31.1,23.8,10.3,0000.0,0006.76,0003.70,0003.32
2022-03-22 11:01:00,,0827.4,5.01,0.00,22.1,21.5,00.0,31.1,23.8,10.3,0000.0,0007.25,0003.68,0003.30
2022-03-22 11:02:00,,0827.4,5.00,0.00,22.1,21.4,00.0,31.1,23.7,10.3,0000.0,0007.07,0003.66,0003.30
2022-03-22 11:03:00,,0827.4,4.98,0.00,22.0,21.3,00.0,31.1,23.6,10.3,0000.0,0006.98,0003.64,0003.28
2022-03-22 11:04:00,,0827.4,5.01,0.00,22.0,21.2,00.0,31.1,23.6,10.3,0000.0,0007.06,0003.63,0003.26
2022-03-22 11:05:00,,0827.4,5.00,0.00,21.9,21.1,00.0,31.1,23.5,10.2,0000.0,0006.66,0003.62,0003.25
2022-03-22 11:06:00,,0827.4,5.00,0.00,21.9,21.0,00.0,31.1,23.5,10.2,0000.0,0006.49,0003.62,0003.23
2022-03-22 11:07:00,,0827.4,5.00,0.00,21.9,20.9,00.0,31.0,23.4,10.3,0000.0,0006.41,0003.60,0003.22
2022-03-22 11:08:00,,0827.4,5.01,0.00,21.9,21.1,00.0,31.0,23.4,10.3,0000.0,0006.42,0003.59,0003.21
2022-03-22 11:09:00,,0827.5,5.01,0.00,22.0,21.9,00.0,31.0,23.7,10.3,0000.0,0006.45,0003.56,0003.18
2022-03-22 11:10:00,,0827.5,5.00,0.00,22.1,22.7,00.0,31.1,24.0,10.3,0000.0,0006.45,0003.55,0003.16
2022-03-22 11:11:00,,0827.5,4.99,0.00,22.2,23.0,00.0,31.1,24.1,10.1,0000.0,0006.34,0003.56,0003.14
2022-03-22 11:12:00,,0827.6,5.00,0.00,22.2,22.7,00.0,31.1,24.1,10.1,0000.0,0005.88,0003.56,0003.14
2022-03-22 11:13:00,,0827.6,5.00,0.00,22.2,22.3,00.0,31.1,24.0,10.2,0000.0,0005.84,0003.54,0003.12
2022-03-22 11:14:00,,0827.7,5.02,0.00,22.2,22.1,00.0,31.1,23.9,10.2,0000.0,0005.92,0003.55,0003.12
2022-03-22 11:15:00,,0827.6,4.99,0.00,22.2,21.9,00.0,31.1,23.9,10.2,0000.0,0005.86,0003.54,0003.10
2022-03-22 11:16:00,,0827.5,5.00,0.00,22.1,21.7,00.0,31.1,23.8,09.9,0000.0,0005.69,0003.50,0003.05
2022-03-22 11:17:00,,0827.6,5.01,0.00,22.1,21.5,00.0,31.1,23.8,10.0,0000.0,0005.56,0003.47,0003.02
2022-03-22 11:18:00,,0827.7,5.00,0.00,22.1,21.4,00.0,31.1,23.7,10.2,0000.0,0005.49,0003.46,0003.01
2022-03-22 11:19:00,,0827.7,4.99,0.00,22.0,21.3,00.0,31.1,23.7,10.2,0000.0,0005.46,0003.46,0003.01
2022-03-22 11:20:00,,0827.6,4.99,0.00,22.0,21.2,00.0,31.1,23.6,10.0,0000.0,0005.47,0003.47,0002.97
2022-03-22 11:21:00,,0827.7,5.00,0.00,22.0,21.2,00.0,31.1,23.6,10.1,0000.0,0005.40,0003.44,0002.94
2022-03-22 11:22:00,,0827.7,5.00,0.00,21.9,21.1,00.0,31.1,23.6,10.3,0000.0,0005.29,0003.42,0002.93
2022-03-22 11:23:00,,0827.7,5.00,0.00,21.9,21.0,00.0,31.0,23.5,10.4,0000.0,0005.17,0003.41,0002.93
2022-03-22 11:24:00,,0827.7,4.99,0.00,21.9,21.0,00.0,31.0,23.5,10.4,0000.0,0005.22,0003.42,0002.94
2022-03-22 11:25:00,,0827.7,5.01,0.00,21.9,21.5,00.0,31.0,23.6,10.4,0000.0,0005.11,0003.40,0002.95
2022-03-22 11:26:00,,0827.7,5.00,0.00,22.1,22.4,00.0,31.1,23.9,10.3,0000.0,0005.18,0003.42,0002.95
2022-03-22 11:27:00,,0827.7,5.00,0.00,22.2,23.0,00.0,31.1,24.1,10.1,0000.0,0005.36,0003.48,0002.96
2022-03-22 11:28:00,,0827.6,5.00,0.00,22.2,22.8,00.0,31.1,24.1,09.9,0000.0,0005.34,0003.47,0002.96
2022-03-22 11:29:00,,0827.6,4.99,0.00,22.2,22.5,00.0,31.1,24.0,10.0,0000.0,0005.42,0003.47,0002.95
2022-03-22 11:30:00,,0827.7,4.99,0.00,22.2,22.2,00.0,31.1,24.0,09.8,0000.0,0005.38,0003.43,0002.88
2022-03-22 11:31:00,,0827.7,5.01,0.00,22.2,21.9,00.0,31.1,23.9,10.0,0000.0,0005.28,0003.44,0002.91
2022-03-22 11:32:00,,0827.7,5.00,0.00,22.2,21.8,00.0,31.1,23.9,10.1,0000.0,0005.31,0003.46,0002.94
2022-03-22 11:33:00,,0827.7,4.98,0.00,22.1,21.6,00.0,31.1,23.8,10.0,0000.0,0005.23,0003.43,0002.91
2022-03-22 11:34:00,,0827.7,5.00,0.00,22.1,21.5,00.0,31.1,23.8,10.0,0000.0,0005.21,0003.42,0002.89
2022-03-22 11:35:00,,0827.7,5.00,0.00,22.1,21.4,00.0,31.1,23.7,10.2,0000.0,0005.20,0003.42,0002.86
2022-03-22 11:36:00,,0827.8,5.00,0.00,22.0,21.3,00.0,31.1,23.7,10.3,0000.0,0005.17,0003.42,0002.86
2022-03-22 11:37:00,,0827.7,5.00,0.00,22.0,21.2,00.0,31.1,23.7,10.3,0000.0,0005.05,0003.38,0002.84
2022-03-22 11:38:00,,0827.7,5.00,0.00,22.0,21.2,00.0,31.1,23.6,10.2,0000.0,0004.88,0003.34,0002.83
2022-03-22 11:39:00,,0827.7,5.00,0.00,22.0,21.1,00.0,31.1,23.6,10.2,0000.0,0004.92,0003.35,0002.84
2022-03-22 11:40:00,,0827.7,5.00,0.00,21.9,21.1,00.0,31.1,23.6,10.0,0000.0,0004.91,0003.34,0002.80
2022-03-22 11:41:00,,0827.7,5.00,0.00,21.9,21.0,00.0,31.0,23.5,10.0,0000.0,0005.04,0003.34,0002.80
2022-03-22 11:42:00,,0827.7,5.00,0.00,21.9,21.5,00.0,31.1,23.7,09.9,0000.0,0005.01,0003.30,0002.75
2022-03-22 11:43:00,,0827.7,5.00,0.00,22.1,22.4,00.0,31.1,23.9,09.8,0000.0,0004.80,0003.25,0002.71
2022-03-22 11:44:00,,0827.7,5.01,0.00,22.2,23.1,00.0,31.1,24.2,09.8,0000.0,0004.73,0003.23,0002.69
2022-03-22 11:45:00,,0827.7,5.00,0.00,22.3,23.0,00.0,31.1,24.2,09.7,0000.0,0004.67,0003.20,0002.66
2022-03-22 11:46:00,,0827.7,5.00,0.00,22.3,22.7,00.0,31.2,24.2,09.7,0000.0,0004.74,0003.19,0002.62
2022-03-22 11:47:00,,0827.7,4.99,0.00,22.3,22.4,00.0,31.2,24.1,09.8,0000.0,0004.71,0003.16,0002.59
2022-03-22 11:48:00,,0827.6,5.01,0.00,22.3,22.1,00.0,31.2,24.0,09.9,0000.0,0004.85,0003.17,0002.57
2022-03-22 11:49:00,,0827.7,4.98,0.00,22.2,21.9,00.0,31.2,23.9,09.9,0000.0,0005.26,0003.21,0002.56
2022-03-22 11:50:00,,0827.7,4.99,0.00,22.2,21.7,00.0,31.2,23.9,09.9,0000.0,0005.32,0003.21,0002.56
2022-03-22 11:51:00,,0827.7,5.00,0.00,22.2,21.6,00.0,31.2,23.8,09.8,0000.0,0005.37,0003.21,0002.56
2022-03-22 11:52:00,,0827.7,5.00,0.00,22.1,21.5,00.0,31.2,23.8,09.8,0000.0,0005.33,0003.22,0002.56
2022-03-22 11:53:00,,0827.7,5.01,0.00,22.1,21.4,00.0,31.2,23.8,09.8,0000.0,0005.14,0003.20,0002.57
2022-03-22 11:54:00,,0827.7,5.00,0.00,22.1,21.3,00.0,31.1,23.7,09.9,0000.0,0005.24,0003.22,0002.57
2022-03-22 11:55:00,,0827.7,5.00,0.00,22.0,21.2,00.0,31.1,23.7,09.8,0000.0,0005.25,0003.21,0002.55
2022-03-22 11:56:00,,0827.7,4.98,0.00,22.0,21.1,00.0,31.1,23.7,09.9,0000.0,0005.22,0003.20,0002.55
2022-03-22 11:57:00,,0827.7,5.00,0.00,22.0,21.1,00.0,31.1,23.6,10.1,0000.0,0005.01,0003.15,0002.55
2022-03-22 11:58:00,,0827.7,5.00,0.00,22.0,21.0,00.0,31.1,23.6,10.1,0000.0,0005.13,0003.16,0002.53
2022-03-22 11:59:00,,0827.8,5.01,0.00,21.9,21.1,00.0,31.1,23.6,10.0,0000.0,0005.19,0003.15,0002.51
